Regional Weather Roundup
Issued by NWS

Home | Current Version | Previous Version | Text Only | Print | Product List | Glossary Off
Versions: 1 2 3 4 5 6 7 8 9 10 11 12 13 14 15 16 17 18 19 20 21 22 23 24 25 26 27 28 29 30 31 32 33 34 35 36 37 38 39 40 41 42 43 44 45 46 47 48 49 50

000
ASUS43 KBIS 021610
RWRND

NORTH DAKOTA REGIONAL WEATHER ROUNDUP
NATIONAL WEATHER SERVICE BISMARCK ND
1100 AM CDT TUE SEP 02 2014

NOTE: "FAIR" INDICATES FEW OR NO CLOUDS BELOW 12,000 FEET WITH NO
SIGNIFICANT WEATHER AND/OR OBSTRUCTIONS TO VISIBILITY.


NDZ001>003-009>011-017-021700-
NORTHWEST NORTH DAKOTA

CITY           SKY/WX    TMP DP  RH WIND       PRES   REMARKS
WILLISTON      SUNNY     67  45  45 W18G24    29.78S
MINOT          SUNNY     68  51  54 SW17      29.72S
MINOT AFB      SUNNY     68  54  61 W15G22    29.72S
$$

NDZ018>021-031>035-040>046-021700-
SOUTHWEST NORTH DAKOTA

CITY           SKY/WX    TMP DP  RH WIND       PRES   REMARKS
BISMARCK       SUNNY     67  52  58 W6        29.82F
DICKINSON      SUNNY     67  46  47 W13       29.83S
GARRISON         N/A     67  51  56 W12       29.77S
HETTINGER ARPT MOSUNNY   68  49  50 W17       29.88S
$$

NDZ004>008-012>016-024-026-027-054-021700-
NORTHEAST NORTH DAKOTA

CITY           SKY/WX    TMP DP  RH WIND       PRES   REMARKS
GRAND FORKS    LGT RAIN  59  54  83 S3        29.79S
GRND FRKS AFB  PTSUNNY   59  54  82 SW13      29.76F
DEVILS LAKE    MOSUNNY   63  52  67 SW13      29.75S
$$

NDZ022-023-025-028>030-036>039-047>053-021700-
SOUTHEAST NORTH DAKOTA

CITY           SKY/WX    TMP DP  RH WIND       PRES   REMARKS
FARGO          MOSUNNY   69  55  60 SW9       29.81F
JAMESTOWN      MOSUNNY   67  53  61 SW8       29.81S
$$




USA.gov is the U.S. government's official web portal to all federal, state and local government web resources and services.